FW3961 Weather Reports


Display with metric or nautical units.
time (UTC)temp
F
wind
direction
speed
MPH
gust
MPH
rain 1hr
in
rain 24hr
in
rain mn
in
humidity
%
barometer
mb
20260904041519 54 128 1.0 3.0 0.00 0.36 0.36 93 1010.6
20260904041013 54 132 1.0 3.0 0.00 0.36 0.36 93 1010.5
20260904040507 54 131 1.0 3.0 0.01 0.36 0.36 93 1010.6
20260904040001 54 131 1.0 2.0 0.01 0.36 0.36 93 1010.6
20260904035455 54 131 2.0 3.0 0.01 0.36 0.36 93 1010.5
20260904034949 54 131 2.0 3.0 0.01 0.36 0.36 93 1010.5
20260904034443 54 132 2.0 3.0 0.01 0.36 0.36 93 1010.5
20260904033937 54 132 2.0 3.0 0.01 0.36 0.36 93 1010.5
20260904033433 54 132 2.0 3.0 0.01 0.36 0.36 93 1010.6
20260904033426 54 132 2.0 3.0 0.01 0.36 0.36 93 1010.5
20260904032418 54 132 2.0 3.0 0.02 0.36 0.36 93 1010.5
20260904031914 54 132 2.0 3.0 0.03 0.36 0.36 93 1010.5
20260904031908 54 133 2.0 3.0 0.04 0.36 0.36 93 1010.5
20260904030906 54 133 2.0 5.0 0.05 0.36 0.36 92 1010.6
20260904030406 55 132 3.0 5.0 0.04 0.35 0.35 92 1010.6
20260904025903 54 130 3.0 7.0 0.04 0.35 0.35 92 1010.6
20260904025404 55 131 3.0 8.0 0.04 0.35 0.35 92 1010.6
20260904024902 55 130 3.0 8.0 0.04 0.35 0.35 92 1010.7
20260904024402 55 148 3.0 8.0 0.04 0.35 0.35 92 1010.8
20260904023901 55 137 2.0 8.0 0.04 0.35 0.35 92 1010.9
20260904023404 55 130 2.0 5.0 0.04 0.35 0.35 92 1010.8
20260904022901 55 128 3.0 5.0 0.04 0.35 0.35 91 1010.8
20260904022402 55 132 3.0 5.0 0.04 0.34 0.34 91 1010.8
20260904021902 56 132 3.0 5.0 0.03 0.33 0.33 91 1010.7
20260904021402 56 120 3.0 6.0 0.02 0.32 0.32 91 1010.6
20260904020902 56 126 2.0 6.0 0.01 0.31 0.31 90 1010.6
20260904020402 56 137 2.0 4.0 0.01 0.31 0.31 90 1010.6
20260904015901 56 137 2.0 4.0 0.02 0.31 0.31 90 1010.6
20260904015402 56 137 2.0 4.0 0.03 0.31 0.31 90 1010.6
20260904014902 56 137 1.0 4.0 0.04 0.31 0.31 90 1010.6
20260904014401 56 137 1.0 2.0 0.04 0.31 0.31 90 1010.6
20260904013901 56 137 1.0 2.0 0.05 0.31 0.31 90 1010.5
20260904013401 56 137 1.0 3.0 0.05 0.31 0.31 90 1010.5
20260904012901 56 137 1.0 4.0 0.05 0.31 0.31 90 1010.5
20260904012359 56 137 2.0 4.0 0.05 0.30 0.30 90 1010.6
20260904011900 56 138 2.0 4.0 0.07 0.30 0.30 90 1010.6
20260904011359 56 137 2.0 4.0 0.07 0.30 0.30 90 1010.6
20260904010859 56 138 2.0 4.0 0.07 0.30 0.30 90 1010.6
20260904010403 56 138 2.0 4.0 0.08 0.30 0.30 90 1010.6
20260904005857 56 138 2.0 4.0 0.07 0.29 0.29 89 1010.6
20260904005358 56 133 2.0 4.0 0.07 0.28 0.28 89 1010.6
20260904004901 56 136 2.0 4.0 0.06 0.27 0.27 89 1010.7
20260904004857 56 117 2.0 4.0 0.06 0.27 0.27 89 1010.6
20260904003855 56 136 2.0 5.0 0.05 0.26 0.26 88 1010.7
20260904003355 56 137 3.0 7.0 0.05 0.26 0.26 88 1010.7
20260904002849 57 139 2.0 7.0 0.05 0.26 0.26 89 1010.6
20260904002343 57 148 2.0 5.0 0.04 0.25 0.25 90 1010.7
20260904001837 58 163 1.0 4.0 0.02 0.24 0.24 90 1010.7
20260904001330 58 257 0.0 4.0 0.02 0.24 0.23 90 1010.7
20260904000825 58 115 0.0 2.0 0.01 0.23 0.23 90 1010.7
20260904000320 58 115 1.0 2.0 0.01 0.24 0.22 90 1010.8
20260903235813 58 121 2.0 4.0 0.01 0.24 0.22 89 1010.7
20260903235306 58 132 2.0 4.0 0.00 0.23 0.21 89 1010.7
20260903235132 58 134 1.0 4.0 0.01 0.23 0.21 89 1010.7
20260903235027 58 155 1.0 3.0 0.02 0.24 0.21 89 1010.7
20260903233748 58 157 2.0 4.0 0.04 0.25 0.21 89 1010.6
20260903233244 58 157 2.0 5.0 0.05 0.25 0.21 88 1010.7
20260903232736 58 161 1.0 5.0 0.05 0.27 0.21 89 1010.8
20260903232230 58 183 0.0 3.0 0.05 0.29 0.21 89 1010.8
20260903232057 58 231 0.0 1.0 0.05 0.32 0.21 90 1010.8
20260903231952 57 231 0.0 2.0 0.05 0.32 0.21 91 1010.7
20260903230712 56 231 1.0 2.0 0.05 0.32 0.21 91 1010.8
20260903230207 56 231 0.0 2.0 0.06 0.32 0.21 90 1010.8
20260903225700 56 231 0.0 2.0 0.06 0.32 0.21 89 1010.9
20260903225155 56 231 0.0 7.0 0.06 0.32 0.21 88 1010.8
20260903224648 56 231 1.0 7.0 0.05 0.31 0.20 88 1010.7
20260903224143 56 152 2.0 8.0 0.03 0.29 0.19 88 1011.1
20260903223637 56 208 2.0 8.0 0.02 0.28 0.16 87 1011.2
20260903223131 56 246 2.0 4.0 0.03 0.28 0.16 87 1011.0
20260903222625 56 255 1.0 4.0 0.03 0.29 0.16 87 1010.8
20260903222119 56 209 2.0 4.0 0.03 0.29 0.16 86 1010.8
20260903221613 56 210 2.0 4.0 0.03 0.30 0.16 86 1010.7
20260903221609 56 211 2.0 4.0 0.03 0.30 0.16 86 1010.6
20260903220601 55 264 1.0 4.0 0.03 0.31 0.16 87 1010.6
20260903220057 55 242 1.0 3.0 0.02 0.30 0.15 87 1010.7
20260903215548 55 222 1.0 3.0 0.02 0.30 0.15 87 1010.8
20260903215043 55 229 1.0 3.0 0.02 0.30 0.15 87 1010.8
20260903214538 55 262 1.0 4.0 0.02 0.30 0.15 86 1011.0
20260903214031 55 184 2.0 7.0 0.02 0.30 0.15 85 1011.0
20260903213524 56 138 3.0 8.0 0.01 0.29 0.14 83 1011.1
20260903213019 56 271 4.0 10.0 0.00 0.28 0.13 82 1011.2
20260903212513 57 205 3.0 10.0 0.00 0.28 0.13 81 1011.2
20260903212008 58 201 2.0 7.0 0.00 0.28 0.13 81 1011.1
20260903211501 58 157 2.0 7.0 0.00 0.28 0.13 81 1010.9
20260903210955 59 159 2.0 6.0 0.00 0.28 0.13 82 1010.8
20260903210448 60 213 2.0 4.0 0.00 0.28 0.13 84 1010.8
20260903205944 60 290 2.0 5.0 0.00 0.28 0.13 84 1010.6
20260903205437 60 230 1.0 5.0 0.00 0.28 0.13 84 1010.7
20260903204931 60 183 0.0 3.0 0.00 0.28 0.13 84 1010.6
20260903204425 60 131 1.0 4.0 0.00 0.28 0.13 85 1010.7
20260903203919 60 131 1.0 4.0 0.00 0.28 0.13 84 1010.8
20260903203412 60 119 1.0 4.0 0.00 0.28 0.13 85 1010.9
20260903202909 60 117 1.0 4.0 0.00 0.28 0.13 86 1010.9
20260903202410 59 126 2.0 8.0 0.01 0.28 0.13 86 1010.9
20260903201909 59 126 3.0 8.0 0.01 0.28 0.13 86 1010.8
20260903201413 59 134 2.0 7.0 0.01 0.28 0.13 87 1010.8
20260903200909 58 140 2.0 5.0 0.01 0.28 0.13 88 1010.9
20260903200408 58 161 3.0 7.0 0.01 0.28 0.13 88 1011.0
20260903195909 57 132 3.0 7.0 0.01 0.28 0.13 89 1011.0
20260903195411 57 132 3.0 7.0 0.01 0.28 0.13 89 1011.0
20260903194909 57 153 4.0 9.0 0.01 0.28 0.13 89 1011.2
20260903194408 57 136 4.0 12.0 0.01 0.28 0.13 89 1011.3
20260903193911 56 129 3.0 12.0 0.01 0.28 0.13 88 1011.3
20260903193408 56 132 4.0 9.0 0.01 0.28 0.13 89 1011.2
20260903192909 56 123 4.0 9.0 0.01 0.28 0.13 89 1011.3
20260903192410 57 126 4.0 11.0 0.00 0.27 0.13 88 1011.2
20260903192406 57 123 4.0 12.0 0.00 0.27 0.12 87 1011.3
20260903191404 58 140 4.0 12.0 0.00 0.28 0.12 85 1011.3
20260903190905 58 122 4.0 12.0 0.00 0.28 0.12 86 1011.3
20260903190405 58 132 3.0 12.0 0.00 0.29 0.12 85 1011.1
20260903185907 58 157 3.0 7.0 0.01 0.29 0.12 86 1011.2
20260903185408 58 132 3.0 7.0 0.01 0.30 0.12 88 1011.2
20260903185404 58 145 3.0 7.0 0.01 0.30 0.12 86 1011.2
20260903184405 58 135 4.0 9.0 0.01 0.31 0.12 89 1011.2
20260903183904 58 138 4.0 9.0 0.01 0.32 0.12 89 1011.2
20260903183404 58 134 4.0 9.0 0.01 0.33 0.12 90 1011.3
20260903182911 57 133 3.0 9.0 0.01 0.37 0.12 91 1011.2
20260903182902 57 134 4.0 9.0 0.01 0.34 0.12 90 1011.2
20260903182402 57 121 4.0 9.0 0.01 0.35 0.12 91 1011.3
20260903181403 57 123 3.0 5.0 0.02 0.39 0.12 92 1011.2
20260903180902 57 119 3.0 5.0 0.02 0.41 0.12 92 1011.2
20260903180407 56 124 3.0 8.0 0.02 0.41 0.12 91 1011.4
20260903180402 56 113 3.0 8.0 0.03 0.42 0.12 92 1011.3
20260903175403 56 132 3.0 7.0 0.02 0.41 0.11 91 1011.3
20260903174903 56 134 4.0 7.0 0.02 0.41 0.11 92 1011.3
20260903174406 56 129 4.0 10.0 0.02 0.42 0.11 91 1011.2
20260903173900 56 135 3.0 10.0 0.02 0.42 0.11 91 1011.3
20260903173352 56 130 3.0 5.0 0.02 0.42 0.11 91 1011.2
20260903172845 56 134 3.0 7.0 0.02 0.42 0.11 90 1011.3
20260903172340 56 137 3.0 7.0 0.02 0.43 0.11 90 1011.3
20260903171834 56 131 3.0 7.0 0.01 0.43 0.10 89 1011.3
20260903171327 56 128 3.0 7.0 0.01 0.44 0.10 89 1011.3
20260903170822 56 138 3.0 8.0 0.00 0.44 0.09 89 1011.2
20260903170316 57 134 4.0 8.0 0.00 0.45 0.09 88 1011.2
20260903165809 57 136 4.0 8.0 0.00 0.46 0.09 88 1011.2
20260903165306 57 144 5.0 8.0 0.00 0.46 0.09 87 1011.1
20260903164804 57 139 5.0 9.0 0.00 0.47 0.09 86 1011.2
20260903164303 58 131 5.0 10.0 0.00 0.48 0.09 86 1011.3
20260903163802 57 136 5.0 11.0 0.00 0.48 0.09 86 1011.3
20260903163303 57 138 5.0 11.0 0.00 0.48 0.09 85 1011.2
20260903162802 58 139 4.0 10.0 0.00 0.48 0.09 86 1011.2
20260903162306 58 127 4.0 9.0 0.00 0.48 0.09 87 1011.3
20260903161800 58 150 5.0 10.0 0.00 0.48 0.09 87 1011.2
20260903161300 57 138 5.0 10.0 0.00 0.48 0.09 88 1011.2
20260903160800 56 148 5.0 9.0 0.00 0.48 0.09 89 1011.2
20260903160301 56 130 3.0 11.0 0.00 0.48 0.09 89 1011.2
20260903155759 56 139 2.0 11.0 0.00 0.48 0.09 90 1011.2
20260903155637 56 132 2.0 5.0 0.00 0.48 0.09 92 1011.4
20260903155529 56 116 2.0 4.0 0.00 0.48 0.09 91 1011.4
20260903154256 56 148 2.0 7.0 0.01 0.48 0.09 92 1011.3
20260903153800 55 136 3.0 7.0 0.02 0.48 0.09 93 1011.1
20260903153756 56 143 3.0 7.0 0.01 0.48 0.09 93 1011.2
20260903152752 55 136 4.0 7.0 0.02 0.48 0.09 93 1011.1
20260903152246 54 130 3.0 7.0 0.02 0.48 0.09 93 1011.0
20260903151740 54 135 3.0 8.0 0.02 0.48 0.09 93 1011.2
20260903151234 54 131 4.0 8.0 0.03 0.48 0.09 93 1011.1
20260903150728 54 139 4.0 9.0 0.03 0.48 0.09 93 1011.2
20260903150222 54 131 4.0 9.0 0.04 0.48 0.09 93 1011.1
20260903145715 54 141 4.0 8.0 0.05 0.48 0.09 93 1011.2
20260903145210 54 132 4.0 8.0 0.06 0.48 0.09 93 1011.1
20260903144706 54 134 4.0 9.0 0.06 0.48 0.09 93 1011.1
20260903144158 53 134 4.0 9.0 0.05 0.47 0.08 93 1011.1
20260903143652 53 128 3.0 8.0 0.05 0.47 0.08 93 1011.0
20260903143147 53 132 2.0 7.0 0.04 0.46 0.07 93 1011.2
20260903142640 53 130 2.0 4.0 0.05 0.46 0.07 93 1011.1
20260903142136 53 129 2.0 4.0 0.05 0.46 0.07 93 1011.1
20260903141628 53 128 2.0 3.0 0.05 0.46 0.07 93 1011.1
20260903141121 53 128 2.0 4.0 0.04 0.45 0.06 93 1011.1
20260903140616 53 128 2.0 4.0 0.04 0.45 0.06 93 1011.1
20260903140110 54 130 2.0 4.0 0.03 0.44 0.05 92 1011.1
20260903140105 54 130 2.0 4.0 0.02 0.43 0.04 92 1011.2
20260903135100 54 130 2.0 4.0 0.01 0.42 0.03 92 1011.2
20260903134556 54 128 2.0 5.0 0.01 0.42 0.03 92 1011.2
20260903134552 54 128 1.0 3.0 0.01 0.42 0.03 92 1011.1
20260903133549 54 128 3.0 5.0 0.01 0.42 0.03 92 1011.1
20260903133048 54 128 3.0 7.0 0.01 0.42 0.03 92 1011.0
20260903132550 54 128 3.0 7.0 0.00 0.41 0.02 92 1011.0
20260903132048 54 132 4.0 7.0 0.00 0.41 0.02 92 1010.9
20260903131546 54 143 4.0 8.0 0.00 0.41 0.02 92 1010.8
20260903131046 54 132 4.0 8.0 0.00 0.41 0.02 92 1010.9
20260903130546 54 131 4.0 7.0 0.00 0.41 0.02 92 1010.8
20260903130046 54 135 4.0 8.0 0.00 0.41 0.02 92 1010.7
20260903125546 54 131 4.0 9.0 0.00 0.41 0.02 92 1010.7
20260903125043 54 136 4.0 9.0 0.00 0.41 0.02 93 1010.8
20260903124542 54 132 3.0 5.0 0.00 0.41 0.02 93 1010.7
20260903124043 54 132 4.0 8.0 0.00 0.41 0.02 93 1010.8
20260903124039 54 132 3.0 7.0 0.00 0.41 0.02 93 1010.7
20260903123039 54 136 4.0 8.0 0.00 0.41 0.02 93 1010.8
20260903122542 54 131 4.0 7.0 0.00 0.41 0.02 93 1010.9
20260903122042 54 142 4.0 8.0 0.00 0.41 0.02 93 1010.9
20260903121540 54 137 5.0 8.0 0.01 0.41 0.02 93 1010.8
20260903121044 54 144 6.0 11.0 0.01 0.41 0.02 93 1010.8
20260903121040 54 130 6.0 11.0 0.01 0.41 0.02 93 1010.9
20260903120017 54 138 5.0 10.0 0.02 0.41 0.02 93 1010.8
20260903115748 54 111 6.0 11.0 0.02 0.41 0.02 93 1010.8
20260903115023 54 126 4.0 9.0 0.02 0.41 0.02 93 1010.9
20260903115019 54 137 5.0 11.0 0.02 0.41 0.02 93 1010.9
20260903114017 54 139 5.0 9.0 0.02 0.41 0.02 93 1010.9
20260903113518 54 134 5.0 9.0 0.02 0.41 0.02 93 1010.9
20260903113018 54 137 5.0 9.0 0.02 0.41 0.02 93 1010.8
20260903112518 54 138 5.0 9.0 0.02 0.41 0.02 93 1010.9
20260903112018 54 135 4.0 9.0 0.02 0.41 0.02 93 1011.0
20260903111517 54 132 4.0 9.0 0.01 0.40 0.01 93 1011.1
20260903111025 54 135 5.0 10.0 0.01 0.40 0.01 93 1011.0
20260903111021 54 133 5.0 10.0 0.01 0.40 0.01 93 1011.1
20260903110021 54 131 5.0 9.0 0.00 0.39 0.00 93 1011.0
20260903105522 54 142 4.0 9.0 0.00 0.39 0.00 92 1011.1
20260903105017 54 132 3.0 7.0 0.00 0.39 0.00 92 1011.1
20260903104518 54 130 4.0 9.0 0.00 0.39 0.00 92 1011.1
20260903104017 54 132 4.0 9.0 0.00 0.39 0.00 92 1011.2
20260903103523 54 132 3.0 7.0 0.00 0.39 0.00 93 1011.2
20260903103519 54 132 3.0 7.0 0.00 0.39 0.00 92 1011.2
20260903102509 54 133 2.0 7.0 0.00 0.39 0.00 93 1011.2
20260903102003 54 141 3.0 8.0 0.00 0.39 0.00 92 1011.2
20260903101457 54 126 3.0 8.0 0.00 0.39 0.00 93 1011.1
20260903100951 54 130 3.0 7.0 0.00 0.39 0.00 93 1011.2
20260903100445 54 133 3.0 8.0 0.00 0.39 0.00 93 1011.3
20260903095939 54 135 4.0 8.0 0.00 0.39 0.00 93 1011.1
20260903095433 54 136 4.0 8.0 0.00 0.39 0.00 93 1011.1
20260903094926 54 123 4.0 5.0 0.00 0.39 0.00 93 1011.0
20260903094421 54 134 3.0 5.0 0.00 0.39 0.00 93 1011.2
20260903093915 54 136 3.0 7.0 0.00 0.39 0.00 93 1011.3
20260903093410 54 130 4.0 8.0 0.00 0.39 0.00 93 1011.2
20260903092903 54 129 4.0 8.0 0.00 0.39 0.00 93 1011.2
20260903092357 54 132 3.0 7.0 0.00 0.39 0.00 93 1011.3
20260903091850 54 128 3.0 7.0 0.00 0.39 0.00 93 1011.3
20260903091346 54 116 3.0 7.0 0.00 0.39 0.00 93 1011.3
20260903091342 54 130 4.0 8.0 0.00 0.39 0.00 93 1011.4
20260903090333 54 129 3.0 7.0 0.00 0.39 0.00 93 1011.4
20260903085827 54 134 3.0 5.0 0.00 0.39 0.00 93 1011.5
20260903085321 54 138 3.0 7.0 0.00 0.39 0.00 93 1011.4
20260903084814 54 141 3.0 7.0 0.00 0.39 0.00 93 1011.5
20260903084309 54 132 4.0 8.0 0.00 0.39 0.00 93 1011.5
20260903083803 54 138 4.0 8.0 0.00 0.39 0.00 93 1011.5
20260903083257 54 135 4.0 8.0 0.00 0.39 0.00 93 1011.4
20260903083252 54 135 4.0 10.0 0.00 0.39 0.00 92 1011.6
20260903082247 54 119 4.0 10.0 0.00 0.39 0.00 93 1011.6
20260903081738 54 132 4.0 9.0 0.00 0.39 0.00 93 1011.6
20260903081233 54 132 4.0 9.0 0.00 0.39 0.00 93 1011.5
20260903080727 54 136 4.0 10.0 0.00 0.39 0.00 93 1011.5
20260903080221 54 136 4.0 10.0 0.00 0.39 0.00 93 1011.5
20260903075715 54 135 4.0 8.0 0.00 0.39 0.00 93 1011.6
20260903075209 54 136 4.0 8.0 0.00 0.39 0.00 93 1011.5
20260903074702 54 130 4.0 9.0 0.00 0.39 0.00 93 1011.5
20260903074156 54 134 4.0 9.0 0.00 0.39 0.00 94 1011.6
20260903073650 54 134 3.0 7.0 0.00 0.39 0.00 94 1011.4
20260903073646 54 132 3.0 7.0 0.00 0.39 0.00 94 1011.5
20260903072639 54 128 4.0 8.0 0.00 0.39 0.00 94 1011.5
20260903072634 54 134 4.0 8.0 0.00 0.39 0.00 94 1011.5
20260903071627 54 135 4.0 8.0 0.00 0.39 0.00 94 1011.4
20260903071121 54 139 3.0 7.0 0.00 0.39 0.00 94 1011.4
20260903070615 54 134 4.0 7.0 0.00 0.39 0.00 94 1011.4
20260903070110 54 137 4.0 7.0 0.00 0.39 0.00 94 1011.3
20260903065604 54 134 4.0 9.0 0.00 0.39 0.39 94 1011.2
20260903065058 54 132 4.0 9.0 0.00 0.39 0.39 94 1011.3
20260903064552 54 134 3.0 8.0 0.00 0.39 0.39 94 1011.3
20260903064046 54 134 3.0 8.0 0.00 0.39 0.39 94 1011.4
20260903063540 54 132 3.0 5.0 0.00 0.39 0.39 94 1011.5
20260903063040 54 136 3.0 5.0 0.00 0.39 0.39 94 1011.4
20260903062537 55 138 3.0 4.0 0.00 0.39 0.39 94 1011.5
20260903062042 55 133 3.0 5.0 0.00 0.39 0.39 94 1011.5
20260903062038 55 134 3.0 4.0 0.00 0.39 0.39 94 1011.6
20260903061038 55 132 2.0 5.0 0.00 0.39 0.39 94 1011.5
20260903060537 55 131 3.0 5.0 0.00 0.39 0.39 94 1011.5
20260903060042 55 130 3.0 5.0 0.00 0.39 0.39 94 1011.4
20260903055538 55 132 3.0 5.0 0.00 0.39 0.39 94 1011.4
20260903055036 55 132 3.0 5.0 0.00 0.39 0.39 94 1011.4
20260903054536 55 132 3.0 6.0 0.00 0.39 0.39 94 1011.4
20260903054041 55 135 3.0 6.0 0.00 0.39 0.39 94 1011.5
20260903054037 55 130 3.0 6.0 0.00 0.39 0.39 94 1011.5
20260903053032 55 143 3.0 7.0 0.00 0.39 0.39 94 1011.5
20260903052530 55 130 3.0 8.0 0.00 0.39 0.39 94 1011.5
20260903052029 55 134 3.0 8.0 0.00 0.39 0.39 94 1011.4
20260903051528 55 128 3.0 8.0 0.00 0.39 0.39 94 1011.4
20260903051032 55 130 2.0 5.0 0.00 0.39 0.39 94 1011.4
20260903051028 55 135 3.0 8.0 0.00 0.39 0.39 94 1011.4
20260903050022 55 132 2.0 5.0 0.00 0.39 0.39 94 1011.4
20260903045517 55 131 3.0 8.0 0.00 0.39 0.39 94 1011.3
20260903045016 55 138 3.0 8.0 0.00 0.39 0.39 94 1011.2
20260903044513 55 136 3.0 7.0 0.00 0.39 0.39 94 1011.1
20260903044353 55 132 4.0 8.0 0.00 0.39 0.39 94 1011.1
20260903044244 55 134 4.0 7.0 0.00 0.39 0.39 94 1011.2
20260903043014 55 130 4.0 9.0 0.00 0.39 0.39 94 1011.1
20260903042514 55 132 3.0 9.0 0.00 0.39 0.39 93 1011.1
20260903042014 55 138 2.0 5.0 0.00 0.39 0.39 93 1011.0